Orbital Elements at Epoch 2459200.5 (2020-Dec-17.0) TDB
Reference: JPL 20 (heliocentric ecliptic J2000)
Element | Value | Uncertainty (1-sigma) | Units |
e | .0359455786993095 | 5.287e-08 | |
a | 5.21638839222663 | 1.1221e-07 | au |
q | 5.028882292747683 | 2.7713e-07 | au |
i | 8.366180603232827 | 5.5728e-06 | deg |
node | 140.7705017836422 | 3.5346e-05 | deg |
peri | 190.1893533049015 | 8.562e-05 | deg |
M | 49.16964714296849 | 7.508e-05 | deg |
tp | 2458606.142294426108 (2019-May-02.64229443) | 0.00091675 | TDB |
period | 4351.643471925949 11.91 | 0.00014041 3.844e-07 | d yr |
n | .08272736549363299 | 2.6693e-09 | deg/d |
Q | 5.403894491705577 | 1.1624e-07 | au |
|
| | Orbit Determination Parameters
Additional Information
|